Cancun International Airp, Mexico

3:02 AM EST on July 24, 2016 (GMT -0500)
Cancun International

Weather History for MMUN - May, 2013

Change the Weather History Date:

Wednesday, May 15, 2013

  Actual Average Record
Temperature  
Mean Temperature 77 °F -  
Max Temperature 86 °F 88 °F 93 °F (1999)
Min Temperature 68 °F 72 °F 66 °F (2001)
Cooling Degree Days 12    
Growing Degree Days 27 (Base 50)    
Moisture  
Dew Point 70 °F    
Average Humidity 75    
Maximum Humidity 94    
Minimum Humidity 58    
Precipitation  
Precipitation 0.00 in - - ()
Sea Level Pressure  
Sea Level Pressure 30.04 in    
Wind  
Wind Speed 5 mph ()    
Max Wind Speed 14 mph    
Max Gust Speed -    
Visibility 6.8 miles    
Events      
Averages and records for this station are not official NWS values.
T = Trace of Precipitation, MM = Missing Value Source: Averaged Metar Reports

Daily Weather History Graph

Daily Weather History Graph

Search for Another Location

Airport or City:

Trip Planner

Search our weather history database for the weather conditions in past years. The results will help you decide how hot, cold, wet, or windy it might be!

Date:

Astronomy

May. 15, 2013 Rise Set
Actual Time 6:09 AM CDT 7:18 PM CDT
Civil Twilight 5:45 AM CDT 7:42 PM CDT
Nautical Twilight 5:17 AM CDT 8:10 PM CDT
Astronomical Twilight 4:48 AM CDT 8:39 PM CDT
Moon 10:38 AM CDT (5/15) 11:50 PM CDT (5/15)
Length of Visible Light 13h 56m
Length of Day
13h 08m
Waxing Crescent, 27% of the Moon is Illuminated
May 15
Waxing Crescent
May 17
First Quarter
May 24
Full
May 31
Last Quarter
Jun 8
New

Hourly Weather History & Observations

Time (CDT) Temp. Heat Index Dew Point Humidity Pressure Visibility Wind Dir Wind Speed Gust Speed Precip Events Conditions
12:45 AM 75.2 °F - 69.8 °F 83% 30.08 in 7.0 mi NNE 2.3 mph - N/A   Partly Cloudy
1:42 AM 73.4 °F - 68.0 °F 83% 30.08 in 7.0 mi Calm Calm - N/A   Partly Cloudy
2:42 AM 71.6 °F - 68.0 °F 88% 30.07 in 7.0 mi North 2.3 mph - N/A   Partly Cloudy
3:41 AM 69.8 °F - 66.2 °F 88% 30.05 in 7.0 mi WNW 2.3 mph - N/A   Partly Cloudy
4:45 AM 69.8 °F - 66.2 °F 88% 30.06 in 6.0 mi NNW 3.5 mph - N/A   Partly Cloudy
5:47 AM 69.8 °F - 66.2 °F 88% 30.06 in 6.0 mi NNW 2.3 mph - N/A   Scattered Clouds
6:44 AM 68.0 °F - 66.2 °F 94% 30.05 in 6.0 mi WNW 3.5 mph - N/A   Scattered Clouds
7:40 AM 71.6 °F - 68.0 °F 88% 30.09 in 5.0 mi Calm Calm - N/A   Scattered Clouds
8:40 AM 82.4 °F 87.2 °F 71.6 °F 70% 30.09 in 7.0 mi NE 5.8 mph - N/A   Scattered Clouds
9:51 AM 84.2 °F 87.3 °F 68.0 °F 58% 30.09 in 7.0 mi ENE 4.6 mph - N/A   Mostly Cloudy
10:40 AM 84.2 °F 88.4 °F 69.8 °F 62% 30.09 in 7.0 mi East 9.2 mph - N/A   Mostly Cloudy
11:40 AM 86.0 °F 91.8 °F 71.6 °F 62% 30.09 in 7.0 mi ENE 6.9 mph - N/A   Mostly Cloudy
12:43 PM 86.0 °F 90.4 °F 69.8 °F 58% 30.07 in 7.0 mi East 9.2 mph - N/A   Scattered Clouds
1:42 PM 86.0 °F 91.8 °F 71.6 °F 62% 30.04 in 7.0 mi East 12.7 mph - N/A   Scattered Clouds
2:41 PM 86.0 °F 91.8 °F 71.6 °F 62% 30.02 in 7.0 mi ESE 13.8 mph - N/A   Scattered Clouds
3:40 PM 84.2 °F 90.9 °F 73.4 °F 70% 30.01 in 7.0 mi East 12.7 mph - N/A   Mostly Cloudy
4:41 PM 82.4 °F 88.2 °F 73.4 °F 74% 29.99 in 7.0 mi ESE 12.7 mph - N/A   Mostly Cloudy
5:47 PM 84.2 °F 89.6 °F 71.6 °F 66% 29.99 in 7.0 mi East 11.5 mph - N/A   Scattered Clouds
6:41 PM 82.4 °F 87.2 °F 71.6 °F 70% 29.99 in 7.0 mi ESE 10.4 mph - N/A   Scattered Clouds
7:40 PM 80.6 °F 84.6 °F 71.6 °F 74% 30.00 in 7.0 mi ESE 6.9 mph - N/A   Mostly Cloudy
8:41 PM 80.6 °F 85.4 °F 73.4 °F 79% 30.01 in 7.0 mi East 9.2 mph - N/A   Scattered Clouds
9:48 PM 80.6 °F 85.4 °F 73.4 °F 79% 29.98 in 7.0 mi SE 5.8 mph - N/A   Scattered Clouds
10:48 PM 80.6 °F 85.4 °F 73.4 °F 79% 30.02 in 7.0 mi ESE 9.2 mph - N/A   Partly Cloudy
11:46 PM 80.6 °F 84.6 °F 71.6 °F 74% 30.02 in 7.0 mi ESE 5.8 mph - N/A   Clear